STARLINK-32449, 61670

Orbit data source: Space-Track

STARLINK-32449, 61670 is a payload satellite owned by SpaceX/Seattle (US) in LEO that was launched on Sat, 26 Oct 2024 UTC via an FALCON 9 launch vehicle from the Air Force Eastern Test Range (AFETR). Payload-class satellites include a variety of spacecraft equipped with specific instruments for various scientific and technological missions. These include communications satellites like Starlink; space stations such as the ISS; scientific satellites like the Hubble; Earth observation satellites from companies like Planet Labs, Umbra, and HawkEye 360; GPS; miniature CubeSats for education and research; and military/defense satellites.

Loading next visibility...
Identifier
61670, 2024-193K
Orbit
LEO
Country
Flag of USUS
Related business
Manufacturer
SpaceX/Seattle
Mission
Operational Commercial Communications
Bus & Motor
STARLINK V2M, Unknown motor
Mass
730 kg wet, ~700 kg dry
Launch date (UTC)
2024-10-26 (1 year ago)
Launch vehicle
FALCON 9
Launch site
Air Force Eastern Test Range (AFETR)
Object type
Payload
Rocket body
Debris
Shape & HBR
Box + 2 Pan, 17.7 m
Radar Cross Section
33.884 m², Large (>1 m²)

Expand to show TLE details & history
Last TLE update: 11 hours ago

TLE from 11 hours ago
0 STARLINK-32449
1 61670U 24193K   26037.97602788 -.00000433  00000-0 -24967-5 0  9999
2 61670  53.1587 233.7072 0001252 105.9749 254.1390 15.30191759 71823
Epoch: 2026-02-06T23:25Z
TLE epoch observation values (Epoch: 2026-02-06T23:25:28.808Z)
Latitude
-0.00002°
Longitude
105.23097°
Altitude
476.374 km
Speed
7.629 km/s
True Right ascension
15h 34m 49s
True Declination
0° 00' 00"
Sunlit
Object was in daylight at epoch
Visualization orbit readout
Latitude
Unknown
Longitude
Unknown
Altitude
Unknown
Speed
Unknown
Apparent Right ascension
Unknown
Apparent Declination
Unknown
Sunlit
N/A
Visualization observer readout
Local Sidereal Time
12:37:46
Azimuth
Unknown
Elevation
Unknown
Doppler factor
Unknown
Orbital elements
Apogee altitude
476.354 km
Perigee altitude
474.638 km
Semi-major axis
6,853.633 km
Eccentricity
0.00013
Inclination
53.1587°
RAAN
233.7072°
Arg. of periapsis
105.9749°
True anomaly
254.1252°
Mean anomaly
254.139°
Eccentric anomaly
254.1321°
Mean motion
3.82527 °/min
Orbital period
94.11 mins
BSTAR
-0.0000024967
Loading maneuver chart data...
Computing Atmospheric mass density...
Loading historical data...
Loading historical data...
Loading historical data...
Loading historical data...
Loading historical data...
Loading historical data...
Loading historical data...

Documentation

Showing up to 5 results
|